Powrót do katalogu

HULIANWANG DIGUI-174

AktywnyNaukaLEO
NORAD 69577·PAYLOAD·🇨🇳 China

Wystrzelony Jun 17, 2026 z Wenchang Space Launch Site

Loading…

Następne Przeloty (najbliższe 24 godziny)

TLE

ŚwieżeSource: Space-Track

Epoka: Sep 14, 2026, 17:40 UTC

1 69577U 26137F   26257.73646912 -.00000097  00000-0  58617-4 0  9991
2 69577  50.0014 274.6185 0000223 330.8694  29.2166 13.29324888 12253

Śledź HULIANWANG DIGUI-174 w czasie rzeczywistym z AllMySat

Download on the App Store